Flag for France Weather past 2 weeks in Marigot, Saint Martin, France

Now
82 °F

Light rain. Partly sunny.


Feels Like: 89 °F
Forecast: N/A
Wind: 13 mph from East

Location: Juliana Airport - Saint Maarten

Current Time: Aug 2, 2015 at 6:51:20 PM

Latest Report: Aug 2, 2015 at 5:00 PM


Visibility: N/A

Pressure: 29.95 "Hg

Humidity: 79%

Dew point: 75 °F

Location of MarigotLocation

Historic Weather in Marigot — Graph

°F

Marigot temperature yesterday

Maximum temperature yesterday: 88 °F (at 11:00 AM)
Minimum temperature yesterday: 82 °F (at 12:00 AM)
Average temperature yesterday: 84 °F

Past Weeks' High & Low Weather Summary

 TemperatureHumidityPressure
High88 °F (Jul 23, 1:00 PM)94% (Aug 2, 6:00 AM)30.12 "Hg (Aug 2, 6:00 AM)
Low77 °F (Aug 2, 5:00 AM)55% (Jul 18, 4:00 PM)29.95 "Hg (Aug 1, 4:00 PM)
Average84 °F71%30.04 "Hg
* Reported Jul 18 4:00 PM — Aug 2 4:00 PM, Marigot, Weather by CustomWeather, © 2015

Note: Actual official high and low records may vary slightly from our data, if they occured in-between our weather recording intervals... More about our weather records

Advertising

Marigot weather history for previous 24 hours

 ConditionsComfort  
Time TempWeatherWind HumidityBarometerVisibility
4:00 PM
Sun, Aug 2
84 °FLight rain. Partly sunny.10 mph74%29.95 "HgN/A
3:00 PM86 °FScattered showers. Broken clouds.13 mph70%29.95 "Hg6 mi
2:00 PM86 °FScattered clouds.10 mph70%29.95 "HgN/A
1:00 PM84 °FScattered showers. Scattered clouds.12 mph74%29.98 "HgN/A
12:00 PM86 °FPartly sunny.13 mph70%29.98 "HgN/A
11:00 AM86 °FScattered clouds.9 mph70%30.01 "HgN/A
10:00 AM86 °FBroken clouds.10 mph70%30.01 "HgN/A
9:00 AM82 °FWarm.8 mph79%29.98 "HgN/A
8:00 AM82 °FPassing clouds.7 mph79%29.98 "HgN/A
7:00 AM81 °FPassing clouds.5 mph84%29.98 "HgN/A
6:00 AM77 °FPassing clouds.5 mph94%29.95 "HgN/A
5:00 AM77 °FSprinkles. Passing clouds.5 mph89%29.95 "HgN/A
2:00 AM81 °FPartly cloudy.7 mph70%29.95 "HgN/A
1:00 AM79 °FSprinkles. Partly cloudy.18 mph79%29.98 "HgN/A
12:00 AM82 °FPassing clouds.15 mph70%29.98 "HgN/A
11:00 PM
Sat, Aug 1
82 °FPassing clouds.14 mph74%29.98 "HgN/A
10:00 PM82 °FPassing clouds.13 mph70%30.01 "HgN/A
9:00 PM82 °FSprinkles. Passing clouds.13 mph74%30.01 "HgN/A
8:00 PM82 °FPassing clouds.14 mph70%29.98 "HgN/A
7:00 PM84 °FPassing clouds.15 mph66%29.98 "HgN/A
6:00 PM84 °FScattered clouds.16 mph66%29.98 "HgN/A
Weather by CustomWeather, © 2015

See weather overviewHow to use our weather pages